Time,TemperatureF,DewpointF,PressureIn,WindDirection,WindDirectionDegrees,WindSpeedMPH,WindSpeedGustMPH,Humidity,HourlyPrecipIn,Conditions,Clouds,dailyrainin,SolarRadiationWatts/m^2,SoftwareType,DateUTC
2014-11-28 00:02:00,11.3,7.9,30.40,WNW,290,2.0,2.0,86,0.00,,,0.00,0,Wunderground v.1.15,2014-11-28 06:02:00,
2014-11-28 00:07:00,11.6,8.2,30.41,WNW,290,1.0,2.0,86,0.00,,,0.00,0,Wunderground v.1.15,2014-11-28 06:07:00,
2014-11-28 00:13:00,11.7,8.3,30.41,WNW,290,1.0,1.0,86,0.00,,,0.00,0,Wunderground v.1.15,2014-11-28 06:13:00,
2014-11-28 00:18:00,11.8,8.4,30.40,WNW,290,2.0,2.0,86,0.00,,,0.00,0,Wunderground v.1.15,2014-11-28 06:18:00,
2014-11-28 00:23:00,11.9,8.3,30.40,WNW,290,1.0,1.0,85,0.00,,,0.00,0,Wunderground v.1.15,2014-11-28 06:23:00,
2014-11-28 00:28:00,12.0,8.4,30.40,WNW,290,1.0,2.0,85,0.00,,,0.00,0,Wunderground v.1.15,2014-11-28 06:28:00,
2014-11-28 00:34:00,12.1,8.5,30.40,WNW,290,0.0,1.0,85,0.00,,,0.00,0,Wunderground v.1.15,2014-11-28 06:34:00,
2014-11-28 00:39:00,12.1,8.2,30.40,WNW,290,0.0,1.0,84,0.00,,,0.00,0,Wunderground v.1.15,2014-11-28 06:39:00,
2014-11-28 00:44:00,12.2,8.3,30.41,WNW,290,2.0,3.0,84,0.00,,,0.00,0,Wunderground v.1.15,2014-11-28 06:44:00,
2014-11-28 00:50:00,12.3,8.1,30.41,WNW,290,0.0,1.0,83,0.00,,,0.00,0,Wunderground v.1.15,2014-11-28 06:50:00,
2014-11-28 00:55:00,12.4,8.2,30.41,WNW,290,0.0,1.0,83,0.00,,,0.00,0,Wunderground v.1.15,2014-11-28 06:55:00,
2014-11-28 01:01:00,12.5,8.3,30.42,WNW,290,0.0,0.0,83,0.00,,,0.00,0,Wunderground v.1.15,2014-11-28 07:01:00,
2014-11-28 01:07:00,12.5,8.3,30.42,WNW,290,0.0,0.0,83,0.00,,,0.00,0,Wunderground v.1.15,2014-11-28 07:07:00,
2014-11-28 01:12:00,12.5,8.3,30.41,WNW,290,0.0,0.0,83,0.00,,,0.00,0,Wunderground v.1.15,2014-11-28 07:12:00,
2014-11-28 01:17:00,12.6,8.4,30.41,WNW,290,0.0,0.0,83,0.00,,,0.00,0,Wunderground v.1.15,2014-11-28 07:17:00,
2014-11-28 01:23:00,12.6,8.4,30.42,WNW,290,0.0,0.0,83,0.00,,,0.00,0,Wunderground v.1.15,2014-11-28 07:23:00,
2014-11-28 01:28:00,12.7,8.5,30.41,WNW,290,0.0,0.0,83,0.00,,,0.00,0,Wunderground v.1.15,2014-11-28 07:28:00,
2014-11-28 01:33:00,12.8,8.6,30.42,WNW,290,0.0,0.0,83,0.00,,,0.00,0,Wunderground v.1.15,2014-11-28 07:33:00,
2014-11-28 01:39:00,13.0,8.8,30.42,WNW,290,0.0,0.0,83,0.00,,,0.00,0,Wunderground v.1.15,2014-11-28 07:39:00,
2014-11-28 01:44:00,13.0,8.8,30.41,WNW,290,0.0,0.0,83,0.00,,,0.00,0,Wunderground v.1.15,2014-11-28 07:44:00,
2014-11-28 01:49:00,13.0,8.8,30.41,WNW,290,0.0,0.0,83,0.00,,,0.00,0,Wunderground v.1.15,2014-11-28 07:49:00,
2014-11-28 01:55:00,13.0,8.8,30.41,WNW,290,0.0,0.0,83,0.00,,,0.00,0,Wunderground v.1.15,2014-11-28 07:55:00,
2014-11-28 02:00:00,13.1,8.9,30.41,WNW,290,0.0,0.0,83,0.00,,,0.00,0,Wunderground v.1.15,2014-11-28 08:00:00,
2014-11-28 02:05:00,13.1,8.9,30.41,WNW,290,0.0,0.0,83,0.00,,,0.00,0,Wunderground v.1.15,2014-11-28 08:05:00,
2014-11-28 02:10:00,13.2,9.0,30.41,WNW,290,0.0,0.0,83,0.00,,,0.00,0,Wunderground v.1.15,2014-11-28 08:10:00,
2014-11-28 02:15:00,13.5,9.3,30.41,SSE,150,0.0,4.0,83,0.00,,,0.00,0,Wunderground v.1.15,2014-11-28 08:15:00,
2014-11-28 02:20:00,13.7,9.8,30.41,SW,223,0.0,0.0,84,0.00,,,0.00,0,Wunderground v.1.15,2014-11-28 08:20:00,
2014-11-28 02:25:00,14.1,9.9,30.41,SSE,165,1.0,4.0,83,0.00,,,0.00,0,Wunderground v.1.15,2014-11-28 08:25:00,
2014-11-28 02:30:00,14.3,10.1,30.41,SSE,159,0.0,1.0,83,0.00,,,0.00,0,Wunderground v.1.15,2014-11-28 08:30:00,
2014-11-28 02:35:00,14.6,10.4,30.40,SSE,159,3.0,5.0,83,0.00,,,0.00,0,Wunderground v.1.15,2014-11-28 08:35:00,
2014-11-28 02:40:00,14.8,10.6,30.39,SSE,155,1.0,2.0,83,0.00,,,0.00,0,Wunderground v.1.15,2014-11-28 08:40:00,
2014-11-28 02:45:00,14.9,10.4,30.40,SSE,162,3.0,5.0,82,0.00,,,0.00,0,Wunderground v.1.15,2014-11-28 08:45:00,
2014-11-28 02:50:00,15.0,10.5,30.40,SSE,162,1.0,3.0,82,0.00,,,0.00,0,Wunderground v.1.15,2014-11-28 08:50:00,
2014-11-28 02:55:00,15.0,10.5,30.40,SSE,162,2.0,5.0,82,0.00,,,0.00,0,Wunderground v.1.15,2014-11-28 08:55:00,
2014-11-28 03:00:00,15.0,10.5,30.39,SSE,155,6.0,6.0,82,0.00,,,0.00,0,Wunderground v.1.15,2014-11-28 09:00:00,
2014-11-28 03:05:00,15.1,10.3,30.38,SSE,160,6.0,7.0,81,0.00,,,0.00,0,Wunderground v.1.15,2014-11-28 09:05:00,
2014-11-28 03:11:00,15.2,10.4,30.38,SSE,157,4.0,6.0,81,0.00,,,0.00,0,Wunderground v.1.15,2014-11-28 09:11:00,
2014-11-28 03:16:00,15.2,10.7,30.38,SE,142,6.0,8.0,82,0.00,,,0.00,0,Wunderground v.1.15,2014-11-28 09:16:00,
2014-11-28 03:21:00,15.2,10.7,30.37,SSE,164,2.0,5.0,82,0.00,,,0.00,0,Wunderground v.1.15,2014-11-28 09:21:00,
2014-11-28 03:26:00,15.3,10.8,30.37,SSE,157,6.0,8.0,82,0.00,,,0.00,0,Wunderground v.1.15,2014-11-28 09:26:00,
2014-11-28 03:31:00,15.4,11.2,30.36,SSE,161,8.0,9.0,83,0.00,,,0.00,0,Wunderground v.1.15,2014-11-28 09:31:00,
2014-11-28 03:36:00,15.5,11.0,30.36,South,169,6.0,9.0,82,0.00,,,0.00,0,Wunderground v.1.15,2014-11-28 09:36:00,
2014-11-28 03:41:00,15.6,11.1,30.36,South,172,4.0,8.0,82,0.00,,,0.00,0,Wunderground v.1.15,2014-11-28 09:41:00,
2014-11-28 03:46:00,15.5,11.0,30.36,SSE,165,5.0,9.0,82,0.00,,,0.00,0,Wunderground v.1.15,2014-11-28 09:46:00,
2014-11-28 03:51:00,15.6,11.1,30.35,SSE,154,2.0,10.0,82,0.00,,,0.00,0,Wunderground v.1.15,2014-11-28 09:51:00,
2014-11-28 03:56:00,15.6,11.1,30.35,SSE,164,2.0,10.0,82,0.00,,,0.00,0,Wunderground v.1.15,2014-11-28 09:56:00,
2014-11-28 04:01:00,15.7,11.2,30.35,SSE,163,2.0,10.0,82,0.00,,,0.00,0,Wunderground v.1.15,2014-11-28 10:01:00,
2014-11-28 04:06:00,15.7,11.2,30.35,SSE,148,1.0,10.0,82,0.00,,,0.00,0,Wunderground v.1.15,2014-11-28 10:06:00,
2014-11-28 04:11:00,15.7,11.2,30.35,SE,139,3.0,3.0,82,0.00,,,0.00,0,Wunderground v.1.15,2014-11-28 10:11:00,
2014-11-28 04:16:00,15.7,11.2,30.35,SW,219,2.0,7.0,82,0.00,,,0.00,0,Wunderground v.1.15,2014-11-28 10:16:00,
2014-11-28 04:21:00,15.7,11.2,30.34,SSE,161,2.0,5.0,82,0.00,,,0.00,0,Wunderground v.1.15,2014-11-28 10:21:00,
2014-11-28 04:26:00,15.7,11.2,30.34,SE,146,3.0,8.0,82,0.00,,,0.00,0,Wunderground v.1.15,2014-11-28 10:26:00,
2014-11-28 04:31:00,15.6,11.1,30.34,South,180,3.0,7.0,82,0.00,,,0.00,0,Wunderground v.1.15,2014-11-28 10:31:00,
2014-11-28 04:36:00,15.7,11.2,30.34,SW,221,5.0,9.0,82,0.00,,,0.00,0,Wunderground v.1.15,2014-11-28 10:36:00,
2014-11-28 04:41:00,15.7,11.2,30.33,WSW,246,3.0,6.0,82,0.00,,,0.00,0,Wunderground v.1.15,2014-11-28 10:41:00,
2014-11-28 04:46:00,15.7,11.2,30.34,SSE,167,0.0,6.0,82,0.00,,,0.00,0,Wunderground v.1.15,2014-11-28 10:46:00,
2014-11-28 04:51:00,15.7,11.2,30.33,SE,144,1.0,4.0,82,0.00,,,0.00,0,Wunderground v.1.15,2014-11-28 10:51:00,
2014-11-28 04:56:00,15.7,11.2,30.33,West,265,1.0,5.0,82,0.00,,,0.00,0,Wunderground v.1.15,2014-11-28 10:56:00,
2014-11-28 05:01:00,15.6,11.4,30.32,SSE,160,4.0,8.0,83,0.00,,,0.00,0,Wunderground v.1.15,2014-11-28 11:01:00,
2014-11-28 05:06:00,15.5,11.3,30.32,SW,216,0.0,8.0,83,0.00,,,0.00,0,Wunderground v.1.15,2014-11-28 11:06:00,
2014-11-28 05:11:00,15.5,11.5,30.32,SE,137,3.0,5.0,84,0.00,,,0.00,0,Wunderground v.1.15,2014-11-28 11:11:00,
2014-11-28 05:17:00,15.5,11.5,30.31,South,169,0.0,8.0,84,0.00,,,0.00,0,Wunderground v.1.15,2014-11-28 11:17:00,
2014-11-28 05:22:00,15.5,11.8,30.31,South,182,1.0,6.0,85,0.00,,,0.00,0,Wunderground v.1.15,2014-11-28 11:22:00,
2014-11-28 05:27:00,15.6,11.9,30.31,SSE,152,7.0,9.0,85,0.00,,,0.00,0,Wunderground v.1.15,2014-11-28 11:27:00,
2014-11-28 05:32:00,15.5,12.1,30.30,SSE,153,6.0,10.0,86,0.00,,,0.00,0,Wunderground v.1.15,2014-11-28 11:32:00,
2014-11-28 05:37:00,15.4,12.0,30.31,SSE,168,4.0,10.0,86,0.00,,,0.00,0,Wunderground v.1.15,2014-11-28 11:37:00,
2014-11-28 05:42:00,15.4,12.2,30.31,SSE,156,2.0,6.0,87,0.00,,,0.00,0,Wunderground v.1.15,2014-11-28 11:42:00,
2014-11-28 05:47:00,15.5,12.3,30.30,SSE,157,5.0,9.0,87,0.00,,,0.00,0,Wunderground v.1.15,2014-11-28 11:47:00,
2014-11-28 05:52:00,15.5,12.3,30.29,South,169,4.0,7.0,87,0.00,,,0.00,0,Wunderground v.1.15,2014-11-28 11:52:00,
2014-11-28 05:57:00,15.5,12.3,30.28,SSE,148,8.0,11.0,87,0.00,,,0.00,0,Wunderground v.1.15,2014-11-28 11:57:00,
2014-11-28 06:02:00,15.6,12.7,30.28,SSW,192,6.0,10.0,88,0.00,,,0.00,0,Wunderground v.1.15,2014-11-28 12:02:00,
2014-11-28 06:07:00,15.7,12.8,30.28,SSE,161,2.0,13.0,88,0.00,,,0.00,0,Wunderground v.1.15,2014-11-28 12:07:00,
2014-11-28 06:12:00,15.8,12.6,30.28,SSE,162,5.0,9.0,87,0.00,,,0.00,0,Wunderground v.1.15,2014-11-28 12:12:00,
2014-11-28 06:17:00,15.8,12.6,30.28,SSE,158,11.0,12.0,87,0.00,,,0.00,0,Wunderground v.1.15,2014-11-28 12:17:00,
2014-11-28 06:22:00,15.8,12.6,30.28,SSE,161,10.0,12.0,87,0.00,,,0.00,0,Wunderground v.1.15,2014-11-28 12:22:00,
2014-11-28 06:27:00,15.9,12.7,30.28,SSE,162,4.0,12.0,87,0.00,,,0.00,0,Wunderground v.1.15,2014-11-28 12:27:00,
2014-11-28 06:32:00,15.9,12.5,30.28,SSE,161,9.0,12.0,86,0.00,,,0.00,0,Wunderground v.1.15,2014-11-28 12:32:00,
2014-11-28 06:37:00,16.0,12.6,30.28,SSE,165,5.0,13.0,86,0.00,,,0.00,0,Wunderground v.1.15,2014-11-28 12:37:00,
2014-11-28 06:42:00,16.1,12.7,30.27,SSE,152,3.0,9.0,86,0.00,,,0.00,0,Wunderground v.1.15,2014-11-28 12:42:00,
2014-11-28 06:47:00,16.1,12.4,30.27,SSE,159,7.0,14.0,85,0.00,,,0.00,0,Wunderground v.1.15,2014-11-28 12:47:00,
2014-11-28 06:52:00,16.2,12.5,30.26,SSE,155,8.0,14.0,85,0.00,,,0.00,0,Wunderground v.1.15,2014-11-28 12:52:00,